Flag for Peru Weather past 2 weeks in Trujillo, La Libertad, Peru

Now
68 °F

Overcast.


Feels Like: 68 °F
Forecast: 64 / 77 °F
Wind: 7 mph from Southeast

Location: Trujillo Airport

Current Time: Sep 1, 2015 at 8:15:04 AM

Latest Report: Sep 1, 2015 at 8:00 AM


Visibility: 5 mi

Pressure: 29.98 "Hg

Humidity: 88%

Dew point: 64 °F

Location of TrujilloLocation

Historic Weather in Trujillo — Graph

°F

Trujillo temperature yesterday

Maximum temperature yesterday: 73 °F (at 12:00 PM)
Minimum temperature yesterday: 63 °F (at 1:00 AM)
Average temperature yesterday: 68 °F

Past Weeks' High & Low Weather Summary

 TemperatureHumidityPressure
High75 °F (Aug 29, 1:00 PM)100% (Aug 23, 4:00 AM)30.01 "Hg (Aug 23, 4:00 AM)
Low50 °F (Aug 27, 1:00 PM)44% (Aug 29, 1:00 PM)29.80 "Hg (Aug 29, 4:00 PM)
Average64 °F85%29.91 "Hg
* Reported Aug 17 6:00 AM — Sep 1 6:00 AM, Trujillo, Weather by CustomWeather, © 2015

Note: Actual official high and low records may vary slightly from our data, if they occured in-between our weather recording intervals... More about our weather records

Advertising

Trujillo weather history for previous 24 hours

 ConditionsComfort  
Time TempWeatherWind HumidityBarometerVisibility
6:00 AM
Tue, Sep 1
63 °FFog.No wind88%29.95 "Hg3 mi
5:00 AM63 °FFog.3 mph88%29.95 "Hg2 mi
4:00 AM63 °FFog.3 mph88%29.95 "Hg3 mi
3:00 AM64 °FFog.No wind88%29.95 "Hg3 mi
2:00 AM64 °FOvercast.5 mph88%29.95 "Hg4 mi
1:00 AM66 °FOvercast.6 mph88%29.98 "Hg4 mi
12:00 AM64 °FOvercast.6 mph94%30.01 "Hg4 mi
10:00 PM
Mon, Aug 31
66 °FOvercast.8 mph88%29.98 "Hg5 mi
9:00 PM68 °FPassing clouds.7 mph88%29.98 "Hg4 mi
8:00 PM70 °FPassing clouds.7 mph78%29.95 "Hg5 mi
7:00 PM70 °FPassing clouds.6 mph78%29.92 "Hg5 mi
6:00 PM72 °FPartly sunny.6 mph78%29.92 "HgN/A
4:00 PM73 °FPartly sunny.8 mph78%29.86 "HgN/A
3:00 PM73 °FScattered clouds.12 mph83%29.86 "HgN/A
2:00 PM72 °FPassing clouds.10 mph83%29.89 "HgN/A
1:00 PM73 °FPartly sunny.8 mph74%29.92 "HgN/A
12:00 PM73 °FPartly sunny.9 mph69%29.92 "HgN/A
11:00 AM72 °FOvercast.8 mph78%29.95 "HgN/A
10:00 AM70 °FOvercast.7 mph78%29.95 "HgN/A
9:00 AM68 °FOvercast.7 mph83%29.92 "HgN/A
8:00 AM68 °FOvercast.7 mph83%29.89 "HgN/A
Weather by CustomWeather, © 2015

See weather overviewHow to use our weather pages